[Iaude] MPEC T144: 2023 TA5 [a=1.14,e=0.17,i=8.8,H=25.6]

mpec at marsden.cfa.harvard.edu mpec at marsden.cfa.harvard.edu
Wed Oct 11 01:13:34 EDT 2023


M.P.E.C. 2023-T144                             Issued 2023 October 11, 05:11 UT

     The Minor Planet Electronic Circulars contain information on unusual
         minor planets, routine data on comets and natural satellites,
         and occasional editorial announcements.  They are published
    on behalf of Division F of the International Astronomical Union by the
          Minor Planet Center, Smithsonian Astrophysical Observatory,
                          Cambridge, MA 02138, U.S.A.
			  
             Prepared using the Tamkin Foundation Computer Network

                              MPC at CFA.HARVARD.EDU
            URL https://www.minorplanetcenter.net/    ISSN 1523-6714

                                    2023 TA5                                    


Observations:
     K23T05A*1C2023 10 09.41929904 07 03.947+29 35 09.35         20.42GVET144G96
     K23T05A 1C2023 10 09.42556104 06 58.878+29 36 13.82         20.14GVET144G96
     K23T05A 1C2023 10 09.43184204 06 53.860+29 37 17.18         20.30GVET144G96
     K23T05A 1C2023 10 09.43819204 06 48.784+29 38 21.44         20.21GVET144G96
     K23T05A KC2023 10 09.45912204 06 32.105+29 41 52.08         20.33GVET144I52
     K23T05A KC2023 10 09.46057004 06 30.946+29 42 06.88         20.23GVET144I52
     K23T05A KC2023 10 09.46200604 06 29.797+29 42 21.13         20.25GVET144I52
     K23T05A KC2023 10 09.46343804 06 28.652+29 42 35.28         20.51GVET144I52
     K23T05A KB2023 10 09.95683304 00 50.39 +31 02 06.1          20.7 GVET144I93
     K23T05A KB2023 10 09.96133204 00 47.04 +31 02 51.0          20.5 GVET144I93
     K23T05A KB2023 10 09.96573204 00 43.80 +31 03 34.4          20.2 GVET144I93
     K23T05A 7C2023 10 10.15810403 58 16.893+31 34 36.13         20.8 GVET144Z84
     K23T05A 7C2023 10 10.16265503 58 13.370+31 35 18.03         20.6 GVET144Z84
     K23T05A KC2023 10 10.29966503 56 48.69 +31 56 09.2          20.7 GXET144858
     K23T05A KC2023 10 10.30559803 56 40.42 +31 57 03.7          20.9 VuET144H21
     K23T05A KC2023 10 10.30693503 56 43.14 +31 57 17.6          19.9 GXET144858
     K23T05A KC2023 10 10.30839503 56 38.28 +31 57 29.8                uET144H21
     K23T05A KC2023 10 10.31363003 56 38.06 +31 58 20.6          20.0 GXET144858
     K23T05A KC2023 10 10.31398903 56 33.98 +31 58 21.3                uET144H21
     K23T05A KC2023 10 10.31678503 56 31.82 +31 58 47.1          20.9 VuET144H21
     K23T05A KC2023 10 10.32458003 56 30.811+32 00 09.04         20.09GVET144I52
     K23T05A KC2023 10 10.32664503 56 29.202+32 00 27.72         20.76GVET144I52
     K23T05A KC2023 10 10.32873803 56 27.578+32 00 47.74         21.03GVET144I52
     K23T05A pC2023 10 10.99856403 48 43.73 +33 37 21.8          20.4 GVET144L01
     K23T05A pC2023 10 11.00004303 48 42.58 +33 37 34.7          20.3 GVET144L01
     K23T05A IC2023 10 11.00201403 48 41.11 +33 37 52.4          20.8 GVET144L01
     K23T05A KC2023 10 11.00474403 48 39.13 +33 38 15.0          20.5 GVET144L01
     K23T05A KC2023 10 11.00652803 48 37.80 +33 38 29.7          20.2 GVET144L01

Observer details:
858 Tebbutt Observatory, Edgewood.  Observer F. B. Zoltowski.  0.51-m f/8.1
    Schmidt-Cassegrain + CCD.
G96 Mt. Lemmon Survey.  Observer K. W. Wierzchos.  Measurers E. C. Beshore, D.
    Fay, J. B. Fazekas, D. C. Fuls, A. R. Gibbs, A. D. Grauer, H. Groeller, J.
    K. Hogan, R. A. Kowalski, S. M. Larson, G. J. Leonard, D. Rankin, R. L.
    Seaman, F. C. Shelly, K. W. Wierzchos.  1.5-m reflector + 10K CCD.
H21 Astronomical Research Observatory, Westfield.  Observer R. Holmes.
    Measurers T. Linder, R. Holmes, L. Horn.  0.76-m f/3.0 astrograph + CCD.
I52 Steward Observatory, Mt. Lemmon Station.  Observer J. B. Fazekas.
    Measurers E. C. Beshore, D. Fay, J. B. Fazekas, D. C. Fuls, A. R. Gibbs,
    A. D. Grauer, H. Groeller, J. K. Hogan, R. A. Kowalski, S. M. Larson, G.
    J. Leonard, D. Rankin, R. L. Seaman, F. C. Shelly, K. W. Wierzchos.  1.0-m
    prime focus + CCD.
I93 St Pardon de Conques.  Observer F. Losse.  0.40-m f/3.7 reflector + CMO.
L01 Visnjan Observatory, Tican.  Observer K. Korlevic.  1.0-m f/2.9 reflector
    + CCD.
Z84 Calar Alto-Schmidt.  Observers F. Ocana, M. Micheli, R. Kresken, L.
    Conversi.  Measurers F. Ocana, M. Micheli.  0.8-m f/3 Schmidt + CCD.

Orbital elements:
2023 TA5                                                 Earth MOID = 0.0156 AU
Epoch 2023 Sept. 13.0 TT = JDT 2460200.5                Veres                   
M  24.38632              (2000.0)            P               Q                  
n   0.80463690     Peri.  300.12205     +0.70717382     +0.70590728             
a   1.1448170      Node    15.10034     -0.58431802     +0.61534727             
e   0.1736414      Incl.    8.83271     -0.39809250     +0.35077437             
P   1.22           H   25.62          G   0.15           U   8                  
Residuals in seconds of arc
231009 G96  0.2+  0.2+    231009 I93  0.2-  0.1-    231010 I52  0.2+  0.1+
231009 G96  0.6-  0.8+    231010 Z84  0.2-  0.2-    231010 I52  0.1-  0.7-
231009 G96  0.5-  0.3+    231010 Z84  0.1-  0.0     231010 I52  0.4-  0.3-
231009 G96  0.5-  0.2+    231010 858  0.4-  0.4-    231010 L01  0.1+  1.5-
231009 I52  0.1+  0.0     231010 H21  0.4-  0.2-    231011 L01  0.5-  1.2-
231009 I52  0.0   0.3+    231010 858  0.7-  0.6-    231011 L01  0.6-  0.3-
231009 I52  0.0   0.2+    231010 H21  0.2-  0.0     231011 L01  0.0   1.0-
231009 I52  0.0   0.0     231010 858  0.4-  0.7-    231011 L01  0.0   1.4-
231009 I93  0.6-  0.3-    231010 H21  0.2-  0.3-
231009 I93  0.7-  0.0     231010 H21  0.3-  0.3-

Ephemeris:
2023 TA5                 a,e,i = 1.14, 0.17, 9                   q = 0.9460
Date    TT    R. A. (2000) Decl.     Delta      r    Elong.  Phase     V
2023 09 11    09 06 13.6 -47 00 08   0.08016 0.9682    59.1   116.8    24.7
...
2023 09 26    06 55 31.2 -24 39 08   0.04101 0.9958    79.0    98.7    22.2
...
2023 10 04    05 15 22.4 +09 21 10   0.03565 1.0138   110.9    67.2    20.8
...
2023 10 10    04 00 11.2 +31 10 08   0.04431 1.0285   131.0    47.1    20.7
2023 10 11    03 48 38.8 +33 38 13   0.04653 1.0310   133.2    44.9    20.7
2023 10 12    03 37 30.5 +35 48 00   0.04892 1.0335   135.2    42.9    20.8
...
2023 10 18    02 40 17.7 +43 53 03   0.06572 1.0492   142.1    35.7    21.3
...
2023 10 26    01 49 31.8 +47 23 26   0.09227 1.0710   144.7    32.4    22.0
...
2023 11 10    01 08 12.5 +46 51 50   0.1498  1.1130   142.4    32.9    23.1

M. P. C. Staff               (C) Copyright 2023 MPC           M.P.E.C. 2023-T144





More information about the Iaude mailing list